Wind_Speed
28 26 27 27 26 25 24 23 22 20 21 21 20 19 18 18 17 16 16 15 15 15 15 16 16 17 17 17 17 17 17 17 17 17 17 17 17 18 18 18 18 18 19 19
30 29 29 28 27 27 27 26 25 23 22 22 23 21 20 20 20 19 18 17 17 17 17 18 18 19 19 19 20 19 20 19 19 19 19 19 19 19 20 20 21 21 21 21
32 32 32 32 29 28 27 27 27 27 26 25 24 24 24 24 23 22 21 21 20 20 20 21 20 21 21 21 21 22 22 22 21 21 21 21 22 22 22 22 23 23 23 23
33 33 35 32 31 30 30 30 29 29 29 28 26 24 24 25 24 24 23 23 23 24 23 23 23 23 23 23 23 24 24 24 24 23 24 23 23 24 23 24 25 25 25 24
35 35 35 33 32 32 32 32 32 30 29 28 27 26 27 26 26 26 27 26 26 26 25 25 25 25 25 25 25 26 26 26 25 25 25 25 25 26 26 27 27 27 26 26
37 37 37 35 33 33 33 34 33 33 32 30 29 29 29 29 28 28 29 28 27 27 27 26 26 26 27 27 27 28 28 28 28 28 28 27 27 27 28 28 28 28 28 28
38 39 38 36 34 33 35 34 33 34 34 32 32 32 31 31 31 30 30 30 29 29 28 28 28 28 29 30 30 30 30 30 29 29 30 30 30 29 29 30 29 29 29 29
38 38 37 36 36 35 33 33 33 34 34 34 34 34 33 32 32 32 32 31 30 29 28 29 30 30 31 31 32 32 32 31 31 31 31 31 31 32 32 32 32 32 31 31
38 37 35 35 34 33 34 33 33 34 34 35 36 35 35 35 34 34 33 33 32 31 30 30 31 32 32 32 32 32 32 32 32 33 33 33 34 34 34 34 34 34 33 33
37 36 35 34 35 34 34 34 33 34 34 35 35 36 37 36 36 35 33 34 34 32 32 32 33 34 34 34 34 33 33 33 33 33 34 34 35 35 36 36 36 36 36 35
36 35 34 34 34 34 35 35 35 35 34 34 35 35 36 37 36 36 36 36 35 34 34 34 34 35 35 35 35 35 34 34 34 35 36 36 36 36 37 37 38 38 37 36
36 35 35 34 33 34 35 36 36 36 36 36 35 36 36 37 37 36 35 35 36 36 35 35 35 35 36 36 36 35 35 36 37 37 38 38 38 39 39 40 40 39 39 40
35 35 36 36 35 35 35 35 36 36 37 37 37 38 37 36 36 35 35 36 37 37 37 37 36 35 36 37 37 37 37 38 38 39 39 40 41 41 41 41 41 41 41 41
35 35 36 37 37 37 37 37 37 37 37 37 37 38 38 37 38 37 38 38 38 38 38 38 37 37 37 37 38 38 39 39 40 40 41 42 42 42 42 42 42 41 41 40
37 37 37 38 38 38 37 37 37 37 38 37 37 38 38 38 38 37 38 38 38 38 38 38 37 37 37 38 38 39 39 40 40 41 42 42 43 43 43 42 42 41 41 40
36 36 36 37 37 37 37 38 38 38 38 38 37 37 37 37 36 36 38 38 37 37 37 37 37 37 37 38 39 40 40 40 40 41 42 42 41 41 41 41 41 41 40 38
32 34 35 36 36 37 38 38 38 38 39 39 38 37 37 36 36 36 36 36 36 36 37 37 38 38 38 39 40 41 41 41 41 40 40 40 39 39 39 38 39 39 38 38
30 31 32 32 34 35 36 36 36 37 38 38 37 36 36 36 36 36 37 37 36 36 37 37 37 37 38 39 39 40 40 39 39 39 38 38 38 39 39 38 38 38 37 37
27 28 29 30 31 31 32 32 33 34 34 34 34 35 35 34 34 34 35 35 36 36 36 36 36 36 36 37 37 37 37 37 37 38 38 38 38 38 38 38 39 38 38 37
26 27 27 27 28 28 28 29 30 30 31 32 32 33 33 33 34 34 34 34 34 34 34 34 34 35 35 36 36 36 36 36 36 36 36 36 36 36 36 37 37 37 37 37
24 25 25 24 24 24 25 27 28 29 29 29 30 30 30 31 32 32 32 31 31 32 33 34 34 34 34 34 34 34 34 34 34 34 34 34 34 35 35 36 36 36 36 37
22 22 23 22 21 22 23 24 25 26 27 27 27 28 28 29 30 29 29 30 30 31 32 33 33 33 33 33 32 32 32 32 32 32 33 33 33 34 34 34 35 35 36 36
21 22 21 20 20 21 21 22 23 23 24 25 25 26 27 28 28 28 28 29 30 30 31 31 31 31 31 31 31 31 31 31 32 31 31 32 33 33 33 33 34 34 34 34
20 20 20 19 19 20 20 20 21 23 23 23 24 25 25 25 26 27 28 28 28 28 28 28 29 29 29 30 30 30 31 31 30 30 31 31 31 31 32 32 32 32 32 32
19 19 19 19 19 19 20 20 20 21 21 22 22 22 23 23 24 24 25 26 26 26 26 27 27 28 28 28 29 29 29 29 28 28 28 28 28 28 29 29 29 29 29 28
16 17 17 18 18 18 18 19 20 20 20 20 20 20 20 21 22 23 23 23 23 24 25 25 26 26 27 27 27 26 25 25 25 25 26 26 26 25 25 26 26 26 26 26
14 15 16 17 17 18 17 18 18 19 19 19 19 19 20 21 21 22 22 22 22 23 24 25 25 25 25 25 25 25 25 25 24 24 24 24 24 24 25 25 25 24 24 23
Wind_Direction
232 230 227 228 230 232 236 239 245 252 252 254 257 260 262 266 271 276 281 284 285 283 287 289 290 291 293 295 296 296 299 303 304 306 310 310 310 311 311 311 311 312 313 314
234 232 230 230 231 232 236 240 244 249 252 253 255 260 263 266 271 277 280 285 287 288 287 288 289 289 290 291 293 293 295 296 298 301 304 306 306 306 306 306 306 307 308 309
235 233 233 232 232 235 237 241 243 248 252 254 254 257 262 268 270 276 282 285 284 286 287 287 289 288 288 289 291 291 291 292 293 295 298 300 301 302 302 303 303 303 302 304
238 234 234 235 235 238 240 243 246 251 253 252 255 258 262 267 272 276 281 282 283 285 284 286 286 287 287 288 289 289 289 289 289 290 292 294 296 298 299 300 300 299 300 300
238 237 237 234 234 237 240 244 248 252 254 253 257 260 263 268 273 277 281 280 279 282 281 281 282 285 286 286 287 289 290 289 289 290 290 291 292 295 295 297 299 298 297 299
239 239 239 238 236 239 242 244 247 250 253 256 258 262 266 269 271 274 276 277 280 281 281 281 281 282 285 285 286 289 291 291 291 291 291 290 291 292 294 295 297 297 297 297
241 242 241 241 238 240 243 246 249 250 252 255 258 263 266 268 271 273 274 277 278 281 281 282 283 283 284 286 287 288 289 289 289 290 290 290 291 291 293 294 295 296 296 296
241 243 244 244 243 242 246 249 250 251 254 256 259 263 265 268 271 273 275 277 279 279 279 281 283 284 285 286 287 287 287 286 286 287 288 288 289 290 291 292 293 293 293 293
242 245 247 247 247 245 248 250 251 252 254 256 259 263 266 267 270 272 274 276 277 277 278 279 281 283 286 287 287 287 286 286 285 286 287 287 288 289 289 290 290 291 290 291
244 246 247 248 247 248 248 250 251 253 255 257 259 262 265 265 268 271 273 274 274 275 275 277 280 282 284 285 285 285 285 285 286 286 287 288 288 289 289 290 290 290 290 291
243 245 246 248 248 249 249 249 251 252 254 257 260 263 265 267 268 270 271 271 273 274 274 275 278 281 282 283 283 283 284 285 285 286 287 287 287 287 288 289 289 290 289 290
242 245 247 248 250 251 251 250 252 254 255 257 260 263 265 266 267 269 271 271 272 273 274 275 278 279 281 282 282 281 282 283 285 285 285 285 286 287 288 288 288 288 289 290
245 246 247 247 250 253 255 254 255 255 257 257 259 261 263 266 265 267 270 272 273 273 274 276 278 279 280 281 281 281 282 284 285 285 285 285 285 286 287 286 286 286 288 289
246 248 249 249 251 253 255 256 257 259 259 259 260 262 264 266 266 267 270 271 273 274 275 276 276 278 278 280 281 282 283 284 284 284 285 286 286 286 286 285 286 286 287 288
247 249 251 251 252 252 254 256 258 259 261 264 265 265 267 268 268 269 271 273 275 276 277 277 277 278 279 281 282 283 283 283 283 284 285 285 285 285 286 286 286 287 288 287
248 250 251 252 253 254 255 256 257 259 262 265 266 266 268 269 269 270 271 272 276 278 278 278 279 279 280 281 282 282 282 283 283 283 285 286 286 286 286 285 286 287 287 286
248 250 252 253 254 254 255 256 257 259 261 263 267 268 269 269 269 269 272 274 277 279 279 279 279 279 280 282 283 283 282 282 283 284 285 286 287 287 286 286 287 286 286 287
249 251 253 255 255 254 253 255 257 259 261 263 266 267 269 270 271 272 274 276 278 279 280 280 281 281 281 282 283 284 283 282 283 284 285 285 286 286 286 287 288 288 286 285
253 254 253 254 253 252 253 255 257 260 261 263 264 267 269 269 271 273 275 276 277 278 279 280 281 282 282 283 283 284 284 284 284 284 284 285 286 286 286 288 289 288 287 287
253 254 254 255 254 254 254 255 256 258 260 261 264 266 267 269 271 273 275 276 276 277 279 282 284 285 286 285 285 285 285 286 285 285 285 286 285 286 288 289 289 288 288 289
252 252 255 255 254 254 254 255 258 260 262 263 264 267 269 271 273 273 273 275 278 280 281 283 285 286 287 287 287 287 286 286 286 287 287 286 286 288 290 291 291 290 290 290
252 253 255 253 251 254 256 257 260 262 263 264 266 268 271 272 273 275 277 278 280 282 283 284 285 286 287 288 287 286 287 287 288 288 287 288 289 290 291 292 292 292 292 291
253 254 252 250 252 254 257 258 260 262 266 268 270 272 273 275 275 275 279 282 282 283 285 286 285 286 287 288 288 288 288 289 288 288 288 289 291 291 292 294 295 295 295 294
251 252 251 252 254 257 260 262 264 267 269 271 273 274 275 276 276 277 279 283 285 286 288 288 287 287 287 288 290 290 290 290 290 291 291 291 292 293 294 296 296 297 298 298
246 248 252 255 258 261 263 265 268 269 270 273 274 275 278 280 282 284 286 287 287 287 287 289 290 290 290 291 292 293 293 292 292 293 295 296 296 296 297 298 299 299 299 299
250 253 255 257 260 263 264 264 266 268 271 273 275 277 280 283 287 289 290 289 288 288 290 291 292 293 293 294 295 295 295 296 297 297 298 299 299 300 300 299 301 301 301 301
253 256 261 263 263 264 267 268 269 270 271 274 276 279 283 287 289 290 291 291 292 294 294 294 294 295 295 296 297 297 298 298 298 299 299 299 300 301 302 301 302 303 303 303
Height
5885 5888 5891 5893 5895 5896 5898 5899 5900 5901 5901 5902 5903 5904 5905 5906 5906 5907 5907 5907 5906 5906 5905 5904 5902 5901 5901 5899 5898 5896 5894 5893 5891 5889 5887 5884 5882 5880 5877 5875 5872 5870 5867 5864
5879 5882 5884 5887 5889 5891 5892 5894 5894 5895 5897 5898 5898 5899 5900 5901 5902 5902 5902 5902 5901 5901 5900 5899 5898 5897 5895 5894 5893 5891 5890 5888 5886 5884 5882 5880 5878 5875 5873 5870 5867 5865 5862 5859
5872 5875 5877 5880 5883 5885 5886 5887 5889 5890 5892 5892 5892 5893 5894 5895 5897 5897 5897 5897 5896 5896 5894 5894 5893 5892 5890 5888 5887 5885 5884 5882 5881 5879 5877 5875 5873 5870 5868 5865 5862 5859 5857 5854
5864 5868 5869 5876 5877 5878 5880 5881 5882 5884 5885 5886 5887 5888 5889 5890 5890 5891 5891 5891 5891 5890 5889 5887 5886 5885 5884 5882 5881 5879 5878 5876 5874 5873 5871 5869 5867 5864 5862 5859 5856 5853 5851 5848
5856 5858 5861 5867 5869 5871 5873 5874 5875 5877 5878 5880 5881 5881 5882 5883 5884 5885 5885 5885 5884 5883 5882 5881 5880 5879 5878 5876 5875 5873 5871 5869 5867 5865 5864 5862 5860 5858 5855 5853 5850 5847 5844 5842
5847 5849 5852 5859 5862 5863 5866 5866 5868 5869 5871 5873 5874 5875 5877 5877 5878 5878 5878 5878 5877 5876 5875 5873 5872 5871 5870 5869 5867 5865 5864 5862 5860 5858 5857 5855 5853 5850 5848 5846 5843 5840 5837 5835
5837 5840 5844 5850 5853 5855 5858 5859 5860 5861 5863 5865 5867 5869 5870 5870 5870 5870 5870 5870 5869 5867 5866 5865 5865 5863 5862 5860 5859 5858 5856 5854 5852 5851 5849 5847 5844 5842 5840 5838 5835 5832 5830 5827
5829 5831 5837 5841 5844 5846 5848 5850 5852 5853 5855 5857 5859 5860 5861 5861 5862 5862 5861 5861 5860 5859 5858 5857 5856 5855 5853 5852 5850 5849 5847 5845 5843 5842 5840 5838 5836 5834 5831 5829 5826 5824 5821 5818
5822 5826 5829 5832 5834 5837 5839 5841 5843 5844 5846 5848 5849 5850 5851 5852 5852 5852 5852 5851 5851 5851 5850 5848 5847 5846 5844 5842 5841 5839 5838 5836 5834 5833 5831 5829 5826 5824 5822 5819 5817 5814 5811 5809
5813 5816 5820 5823 5825 5828 5830 5832 5833 5835 5836 5837 5839 5840 5841 5841 5842 5842 5842 5842 5841 5841 5840 5839 5838 5836 5835 5833 5831 5830 5828 5826 5824 5823 5821 5819 5817 5814 5812 5810 5807 5804 5800 5798
5804 5807 5811 5813 5816 5818 5820 5822 5824 5826 5827 5828 5829 5830 5831 5831 5831 5832 5832 5832 5832 5831 5830 5829 5828 5827 5825 5823 5821 5820 5818 5817 5815 5813 5811 5809 5807 5804 5802 5799 5796 5793 5790 5788
5796 5800 5802 5805 5808 5809 5811 5813 5815 5816 5818 5819 5820 5821 5821 5821 5821 5821 5822 5822 5822 5821 5820 5819 5818 5817 5815 5813 5812 5810 5808 5806 5804 5802 5800 5798 5796 5794 5791 5788 5785 5782 5779 5777
5788 5790 5793 5795 5798 5800 5802 5804 5805 5806 5807 5809 5810 5811 5811 5810 5811 5811 5812 5812 5811 5810 5809 5808 5807 5806 5805 5803 5801 5799 5797 5795 5793 5791 5789 5787 5785 5782 5780 5777 5774 5771 5768 5765
5778 5780 5783 5786 5788 5790 5792 5793 5794 5796 5797 5797 5798 5799 5800 5800 5801 5801 5801 5800 5800 5799 5798 5797 5796 5795 5793 5792 5790 5788 5786 5784 5782 5779 5777 5775 5773 5770 5768 5765 5762 5758 5756 5753
5769 5771 5773 5776 5778 5780 5782 5783 5784 5785 5786 5787 5788 5788 5789 5789 5790 5790 5790 5789 5789 5788 5787 5786 5785 5783 5782 5780 5779 5777 5775 5772 5770 5768 5766 5763 5760 5758 5755 5752 5749 5747 5744 5742
5759 5760 5763 5765 5767 5769 5771 5772 5774 5775 5776 5776 5776 5777 5777 5778 5779 5778 5778 5778 5777 5777 5776 5775 5773 5772 5770 5769 5767 5765 5763 5761 5758 5756 5753 5751 5748 5745 5742 5739 5737 5734 5732 5729
5749 5750 5752 5754 5756 5757 5759 5761 5763 5764 5765 5766 5766 5766 5767 5767 5767 5767 5767 5767 5767 5766 5765 5763 5762 5760 5758 5757 5755 5753 5751 5749 5746 5744 5741 5738 5735 5733 5730 5727 5725 5722 5720 5717
5739 5741 5742 5744 5745 5746 5748 5749 5751 5753 5754 5755 5755 5756 5756 5756 5757 5757 5757 5757 5756 5755 5753 5752 5750 5748 5747 5745 5743 5741 5739 5736 5734 5732 5729 5727 5724 5721 5719 5716 5713 5711 5708 5705
5730 5732 5733 5734 5735 5736 5737 5739 5741 5742 5743 5744 5745 5746 5746 5746 5747 5747 5746 5746 5745 5744 5743 5741 5739 5737 5735 5733 5731 5729 5727 5725 5723 5720 5718 5715 5712 5710 5707 5705 5702 5699 5696 5694
5722 5723 5724 5725 5726 5727 5729 5730 5731 5732 5733 5734 5735 5736 5736 5737 5737 5736 5736 5735 5734 5733 5732 5730 5728 5726 5724 5722 5720 5718 5716 5714 5711 5708 5706 5704 5701 5699 5696 5694 5690 5687 5685 5682
5715 5716 5717 5718 5718 5719 5721 5722 5723 5724 5725 5726 5727 5727 5727 5727 5726 5726 5725 5725 5724 5722 5721 5719 5718 5716 5714 5711 5709 5707 5705 5703 5700 5698 5695 5693 5691 5688 5686 5683 5680 5676 5673 5670
5709 5710 5711 5711 5712 5713 5714 5715 5716 5716 5717 5718 5718 5718 5718 5718 5718 5717 5716 5715 5714 5713 5711 5709 5708 5706 5704 5702 5699 5697 5695 5693 5690 5688 5685 5683 5680 5678 5675 5672 5669 5665 5662 5659
5703 5703 5704 5705 5706 5707 5708 5709 5709 5710 5710 5710 5711 5711 5710 5710 5709 5709 5708 5707 5705 5704 5702 5700 5698 5696 5694 5692 5690 5688 5685 5683 5680 5678 5675 5673 5670 5668 5665 5662 5658 5655 5652 5649
5696 5697 5698 5700 5701 5701 5702 5703 5703 5703 5703 5704 5704 5703 5703 5702 5701 5700 5699 5698 5697 5695 5693 5691 5689 5687 5685 5683 5681 5679 5676 5674 5671 5669 5666 5663 5660 5658 5655 5652 5649 5646 5642 5639
5691 5692 5693 5694 5696 5697 5697 5697 5697 5696 5697 5697 5696 5696 5695 5694 5694 5693 5691 5690 5688 5687 5685 5683 5681 5679 5677 5674 5672 5670 5667 5664 5662 5659 5657 5654 5651 5649 5646 5643 5640 5636 5633 5630
5686 5687 5688 5690 5690 5691 5691 5691 5691 5691 5690 5690 5690 5689 5689 5688 5686 5685 5684 5682 5681 5679 5677 5675 5673 5671 5669 5666 5664 5661 5658 5656 5653 5650 5648 5645 5642 5640 5637 5634 5632 5628 5625 5622
5681 5682 5683 5684 5685 5685 5685 5685 5685 5685 5685 5685 5684 5684 5683 5682 5681 5679 5678 5676 5674 5672 5670 5668 5666 5664 5661 5659 5656 5654 5651 5648 5646 5643 5640 5638 5635 5633 5630 5627 5624 5621 5618 5615